When you browse on this site, cookies collect data to enhance your experience and personalize the content and advertising you see.
Visit our Privacy Policy to learn more. By continuing to use the site, you agree to this use of cookies and data.
  • In Latvia
  • List of Countries
  • For 7 days
  • Water Temperature
  • Weather Map
  • Weather Widgets
  • user-avatar
    Login

    Hourly Weather Pinsk

    Today, 14 December, Saturday

    Time Temperature Precipitation Wind Pressure Humidity
    00:00 +1°C° 0 mm 6 mps 738 mmHg 79%
    01:00 +1°C° 0 mm 6 mps 738 mmHg 79%
    02:00 +2°C° 0 mm 6 mps 738 mmHg 79%
    03:00 +2°C° 0 mm 6 mps 738 mmHg 80%
    04:00 +1°C° 0 mm 6 mps 738 mmHg 80%
    05:00 +1°C° 0 mm 5 mps 738 mmHg 81%
    06:00 +1°C° 0 mm 6 mps 738 mmHg 81%
    07:00 +1°C° 0 mm 6 mps 738 mmHg 82%
    08:00 +1°C° 0 mm 6 mps 738 mmHg 82%
    09:00 +1°C° 0 mm 6 mps 738 mmHg 81%
    10:00 +1°C° 0 mm 6 mps 738 mmHg 81%
    11:00 +1°C° 0 mm 6 mps 738 mmHg 80%
    12:00 +2°C° 0 mm 6 mps 738 mmHg 80%
    13:00 +2°C° 0 mm 6 mps 738 mmHg 80%
    14:00 +2°C° 0 mm 6 mps 738 mmHg 80%
    15:00 +2°C° 0 mm 6 mps 738 mmHg 80%
    16:00 +2°C° 0 mm 6 mps 738 mmHg 81%
    17:00 +2°C° 0 mm 6 mps 738 mmHg 81%
    18:00 +2°C° 0 mm 6 mps 738 mmHg 82%
    19:00 +2°C° 0 mm 6 mps 738 mmHg 84%
    20:00 +2°C° 0 mm 6 mps 738 mmHg 85%
    21:00 +3°C° 0.4 mm 6 mps 738 mmHg 87%
    22:00 +3°C° 0.4 mm 5 mps 738 mmHg 89%
    23:00 +3°C° 0.4 mm 5 mps 738 mmHg 91%

    Tomorrow, 15 December, Sunday

    Time Temperature Precipitation Wind Pressure Humidity
    00:00 +3°C° 0.1 mm 5 mps 738 mmHg 88%
    01:00 +3°C° 0.1 mm 5 mps 739 mmHg 86%
    02:00 +3°C° 0.1 mm 5 mps 739 mmHg 84%
    03:00 +3°C° 0 mm 5 mps 739 mmHg 82%
    04:00 +3°C° 0 mm 5 mps 740 mmHg 80%
    05:00 +2°C° 0 mm 5 mps 740 mmHg 78%
    06:00 +2°C° 0 mm 5 mps 741 mmHg 79%
    07:00 +2°C° 0 mm 5 mps 742 mmHg 80%
    08:00 +2°C° 0 mm 5 mps 743 mmHg 80%
    09:00 +2°C° 0 mm 5 mps 743 mmHg 78%
    10:00 +2°C° 0 mm 5 mps 744 mmHg 76%
    11:00 +2°C° 0 mm 5 mps 744 mmHg 74%
    12:00 +2°C° 0 mm 5 mps 744 mmHg 74%
    13:00 +3°C° 0 mm 5 mps 745 mmHg 75%
    14:00 +3°C° 0 mm 5 mps 745 mmHg 75%
    15:00 +4°C° 0 mm 4 mps 745 mmHg 77%
    16:00 +3°C° 0 mm 4 mps 745 mmHg 79%
    17:00 +3°C° 0 mm 4 mps 745 mmHg 81%
    18:00 +4°C° 0.1 mm 4 mps 745 mmHg 80%
    19:00 +3°C° 0.1 mm 5 mps 745 mmHg 78%
    20:00 +4°C° 0.1 mm 6 mps 745 mmHg 77%
    21:00 +4°C° 0.3 mm 6 mps 746 mmHg 76%
    22:00 +4°C° 0.3 mm 6 mps 746 mmHg 76%
    23:00 +5°C° 0.3 mm 6 mps 746 mmHg 75%

    Day after tomorrow, 16 December, Monday

    Time Temperature Precipitation Wind Pressure Humidity
    00:00 +6°C° 0 mm 5 mps 747 mmHg 76%
    01:00 +5°C° 0 mm 5 mps 747 mmHg 78%
    02:00 +5°C° 0 mm 5 mps 748 mmHg 79%
    03:00 +5°C° 0 mm 4 mps 748 mmHg 81%
    04:00 +4°C° 0 mm 4 mps 749 mmHg 82%
    05:00 +4°C° 0 mm 4 mps 749 mmHg 83%
    06:00 +4°C° 0 mm 3 mps 749 mmHg 84%
    07:00 +3°C° 0 mm 3 mps 750 mmHg 84%
    08:00 +3°C° 0 mm 3 mps 750 mmHg 85%
    09:00 +4°C° 0 mm 3 mps 750 mmHg 83%
    10:00 +4°C° 0 mm 3 mps 751 mmHg 80%
    11:00 +5°C° 0 mm 3 mps 751 mmHg 78%
    12:00 +5°C° 0 mm 3 mps 751 mmHg 77%
    13:00 +5°C° 0 mm 3 mps 751 mmHg 77%
    14:00 +5°C° 0 mm 3 mps 751 mmHg 76%
    15:00 +6°C° 0 mm 2 mps 751 mmHg 79%
    16:00 +5°C° 0 mm 2 mps 751 mmHg 81%
    17:00 +5°C° 0 mm 2 mps 751 mmHg 84%
    18:00 +5°C° 0 mm 2 mps 751 mmHg 85%
    19:00 +4°C° 0 mm 2 mps 751 mmHg 85%
    20:00 +4°C° 0 mm 2 mps 751 mmHg 85%
    21:00 +4°C° 0 mm 2 mps 751 mmHg 85%
    22:00 +4°C° 0 mm 2 mps 751 mmHg 85%
    23:00 +3°C° 0 mm 3 mps 751 mmHg 84%

    17 December, Tuesday

    Time Temperature Precipitation Wind Pressure Humidity
    00:00 +3°C° 0 mm 3 mps 751 mmHg 85%
    01:00 +3°C° 0 mm 3 mps 751 mmHg 86%
    02:00 +3°C° 0 mm 3 mps 750 mmHg 87%
    03:00 +3°C° 0 mm 3 mps 750 mmHg 87%
    04:00 +3°C° 0 mm 3 mps 750 mmHg 88%
    05:00 +3°C° 0 mm 3 mps 750 mmHg 88%
    06:00 +3°C° 0 mm 3 mps 750 mmHg 88%
    07:00 +4°C° 0 mm 3 mps 750 mmHg 87%
    08:00 +4°C° 0 mm 3 mps 749 mmHg 87%
    09:00 +4°C° 0 mm 3 mps 750 mmHg 82%
    10:00 +5°C° 0 mm 4 mps 750 mmHg 78%
    11:00 +6°C° 0 mm 4 mps 750 mmHg 73%
    12:00 +7°C° 0 mm 4 mps 749 mmHg 71%
    13:00 +8°C° 0 mm 4 mps 749 mmHg 68%
    14:00 +8°C° 0 mm 4 mps 749 mmHg 65%
    15:00 +8°C° 0 mm 3 mps 748 mmHg 69%
    16:00 +7°C° 0 mm 3 mps 748 mmHg 73%
    17:00 +5°C° 0 mm 3 mps 748 mmHg 77%
    18:00 +5°C° 0 mm 3 mps 748 mmHg 78%
    19:00 +5°C° 0 mm 3 mps 748 mmHg 78%
    20:00 +5°C° 0 mm 3 mps 748 mmHg 79%
    21:00 +5°C° 0 mm 3 mps 748 mmHg 80%
    22:00 +5°C° 0 mm 3 mps 748 mmHg 81%
    23:00 +5°C° 0 mm 3 mps 748 mmHg 82%

    18 December, Wednesday

    Time Temperature Precipitation Wind Pressure Humidity
    00:00 +4°C° 0 mm 3 mps 748 mmHg 84%
    01:00 +4°C° 0 mm 3 mps 748 mmHg 86%
    02:00 +4°C° 0 mm 3 mps 748 mmHg 88%
    03:00 +4°C° 0 mm 3 mps 748 mmHg 90%
    04:00 +4°C° 0 mm 3 mps 748 mmHg 91%
    05:00 +3°C° 0 mm 3 mps 748 mmHg 93%
    06:00 +3°C° 0 mm 3 mps 748 mmHg 92%
    07:00 +3°C° 0 mm 3 mps 748 mmHg 92%
    08:00 +3°C° 0 mm 3 mps 748 mmHg 92%
    09:00 +4°C° 0 mm 3 mps 748 mmHg 90%
    10:00 +5°C° 0 mm 3 mps 748 mmHg 87%
    11:00 +7°C° 0 mm 3 mps 749 mmHg 85%
    12:00 +7°C° 0 mm 3 mps 748 mmHg 83%
    13:00 +8°C° 0 mm 3 mps 748 mmHg 82%
    14:00 +8°C° 0 mm 3 mps 748 mmHg 80%
    15:00 +8°C° 0 mm 3 mps 748 mmHg 83%
    16:00 +7°C° 0 mm 3 mps 748 mmHg 86%
    17:00 +5°C° 0 mm 3 mps 748 mmHg 88%
    18:00 +5°C° 0 mm 3 mps 748 mmHg 88%
    19:00 +5°C° 0 mm 3 mps 748 mmHg 89%
    20:00 +5°C° 0 mm 3 mps 748 mmHg 89%
    21:00 +5°C° 0 mm 3 mps 748 mmHg 89%
    22:00 +5°C° 0 mm 3 mps 748 mmHg 89%
    23:00 +5°C° 0 mm 3 mps 748 mmHg 89%

    19 December, Thursday

    Time Temperature Precipitation Wind Pressure Humidity
    00:00 +5°C° 0 mm 3 mps 748 mmHg 90%
    01:00 +4°C° 0 mm 3 mps 748 mmHg 91%
    02:00 +4°C° 0 mm 3 mps 748 mmHg 92%
    03:00 +4°C° 0 mm 3 mps 748 mmHg 93%
    04:00 +4°C° 0 mm 3 mps 748 mmHg 94%
    05:00 +3°C° 0 mm 3 mps 748 mmHg 95%
    06:00 +3°C° 0 mm 3 mps 748 mmHg 95%
    07:00 +4°C° 0 mm 2 mps 748 mmHg 96%
    08:00 +4°C° 0 mm 2 mps 748 mmHg 96%
    09:00 +4°C° 0 mm 2 mps 748 mmHg 95%
    10:00 +5°C° 0 mm 2 mps 748 mmHg 93%
    11:00 +5°C° 0 mm 2 mps 749 mmHg 92%
    12:00 +6°C° 0 mm 1 mps 748 mmHg 91%
    13:00 +6°C° 0 mm 1 mps 748 mmHg 90%
    14:00 +6°C° 0 mm 1 mps 748 mmHg 88%
    15:00 +6°C° 0 mm 1 mps 748 mmHg 89%
    16:00 +6°C° 0 mm 1 mps 748 mmHg 90%
    17:00 +6°C° 0 mm 1 mps 748 mmHg 92%
    18:00 +6°C° 0 mm 1 mps 748 mmHg 92%
    19:00 +6°C° 0 mm 1 mps 748 mmHg 92%
    20:00 +5°C° 0 mm 2 mps 748 mmHg 92%
    21:00 +5°C° 0 mm 2 mps 748 mmHg 91%
    22:00 +5°C° 0 mm 2 mps 748 mmHg 90%
    23:00 +4°C° 0 mm 3 mps 748 mmHg 89%
    Show more